Farmington, NM

6:01 AM MDT on March 26, 2017 (GMT -0600)
Four Corners Regional

Weather History for KFMN - May, 2013

Change the Weather History Date:

Friday, May 3, 2013

  Actual Average Record
Temperature  
Mean Temperature 50 °F -  
Max Temperature 70 °F 70 °F 86 °F (2000)
Min Temperature 30 °F 37 °F 28 °F (2008)
Degree Days  
Heating Degree Days 15    
Moisture  
Dew Point 2 °F    
Average Humidity 15    
Maximum Humidity 34    
Minimum Humidity 4    
Precipitation  
Precipitation 0.00 in - - ()
Sea Level Pressure  
Sea Level Pressure 30.12 in    
Wind  
Wind Speed 5 mph (ENE)    
Max Wind Speed 10 mph    
Max Gust Speed -    
Visibility 10 miles    
Events      
Averages and records for this station are not official NWS values.
T = Trace of Precipitation, MM = Missing Value Source: NWS Daily Summary

Daily Weather History Graph

Daily Weather History Graph

Search for Another Location

Airport or City:

Trip Planner

Search our weather history database for the weather conditions in past years. The results will help you decide how hot, cold, wet, or windy it might be!

Date:

Astronomy

May. 03, 2013 Rise Set
Actual Time 6:16 AM MDT 8:03 PM MDT
Civil Twilight 5:48 AM MDT 8:31 PM MDT
Nautical Twilight 5:14 AM MDT 9:05 PM MDT
Astronomical Twilight 4:38 AM MDT 9:41 PM MDT
Moon 2:33 AM MDT (5/3) 2:10 PM MDT (5/3)
Length of Visible Light 14h 42m
Length of Day
13h 46m
Last Quarter, 36% of the Moon is Illuminated
May 3
Last Quarter
May 9
New
May 17
First Quarter
May 24
Full
May 31
Last Quarter

Hourly Weather History & Observations

Time (MDT) Temp. Windchill Dew Point Humidity Pressure Visibility Wind Dir Wind Speed Gust Speed Precip Events Conditions
12:53 AM 42.1 °F 37.7 °F 3.0 °F 20% 30.29 in 10.0 mi West 6.9 mph - N/A   Clear
2:53 AM 30.9 °F 27.5 °F 1.0 °F 28% 30.29 in 10.0 mi North 3.5 mph - N/A   Clear
3:53 AM 30.0 °F 24.1 °F 1.0 °F 29% 30.29 in 10.0 mi East 5.8 mph - N/A   Clear
4:53 AM 32.0 °F 26.4 °F 6.1 °F 34% 30.27 in 10.0 mi East 5.8 mph - N/A   Clear
5:53 AM 33.1 °F 25.5 °F 6.1 °F 32% 30.27 in 10.0 mi East 9.2 mph - N/A   Clear
6:53 AM 34.0 °F 27.2 °F 8.1 °F 34% 30.29 in 10.0 mi East 8.1 mph - N/A   Clear
7:53 AM 39.0 °F 32.8 °F 9.0 °F 29% 30.28 in 10.0 mi ESE 9.2 mph - N/A   Clear
8:53 AM 44.1 °F 39.5 °F 9.0 °F 24% 30.26 in 10.0 mi ESE 8.1 mph - N/A   Clear
9:53 AM 48.9 °F - 8.1 °F 19% 30.24 in 10.0 mi ESE 4.6 mph - N/A   Clear
10:53 AM 53.1 °F - 7.0 °F 16% 30.21 in 10.0 mi ESE 3.5 mph - N/A   Clear
11:53 AM 57.0 °F - 8.1 °F 14% 30.18 in 10.0 mi Variable 3.5 mph - N/A   Clear
12:53 PM 60.1 °F - 8.1 °F 13% 30.14 in 10.0 mi Calm Calm - N/A   Clear
1:53 PM 62.1 °F - 6.1 °F 11% 30.12 in 10.0 mi Variable 3.5 mph - N/A   Clear
2:53 PM 66.0 °F - 6.1 °F 9% 30.06 in 10.0 mi Calm Calm - N/A   Clear
3:53 PM 66.9 °F - -0.9 °F 7% 30.01 in 10.0 mi Variable 4.6 mph - N/A   Clear
4:53 PM 70.0 °F - -2.0 °F 6% 29.96 in 10.0 mi Variable 5.8 mph - N/A   Clear
5:53 PM 69.1 °F - -6.0 °F 5% 29.95 in 10.0 mi Variable 4.6 mph - N/A   Clear
6:53 PM 68.0 °F - -9.0 °F 4% 29.93 in 10.0 mi WNW 10.4 mph - N/A   Clear
7:53 PM 63.0 °F - -5.1 °F 6% 29.92 in 10.0 mi WNW 5.8 mph - N/A   Clear
8:53 PM 57.0 °F - -2.0 °F 9% 29.93 in 10.0 mi WNW 3.5 mph - N/A   Clear
9:53 PM 52.0 °F - -2.9 °F 10% 29.93 in 10.0 mi NNW 3.5 mph - N/A   Clear
10:53 PM 48.9 °F - -2.0 °F 12% 29.93 in 10.0 mi Calm Calm - N/A   Clear
11:53 PM 41.0 °F - -0.9 °F 17% 29.94 in 10.0 mi Calm Calm - N/A   Clear